STARLINK-1155 (45053 NORAD) Tracking and Keplerian Element Data

This shows tracking and keplerian element data for the satellite.

Feedback or suggestion? Click here.




ElementValue
Catalog45053
NameSTARLINK-1155
Epoch Orbit402
Epoch Day52.91667824
Epoch Year2020
RAAN120.8816
Inclination52.9972
Eccentricity0.0001826
Argument of Perigee58.3638
Mean Anonmoly189.127
Mean Motion15.51263095
Decay Rate0.00911672
L11 45053U 20006K 20052.91667824 .00911672 00000-0 14059-1 0 9993
L22 45053 52.9972 120.8816 0001826 58.3638 189.1270 15.51263095 4020

Live tracking and technical data element details for STARLINK-1155 (NORAD 45053). STARLINK-1155 can be tracked NOW for your location showing map with azimuth and elevation plus other details from your city location.

Track the satellite on the map from your city or location and see movement details for azimuth, elevation, latitude, longitude, range, height, and movement on the map or in text.







IsCatalogInMostPopularTable: catalog: 45053, numindb: 7
Update: records affected: 1



GetName: 45053 STARLINK-1155

Hit Count: updated at: Wed, 26 Feb 2020 16:46:40 GMT